Other Public Products
Issued by NWS Grand Forks, ND

Home | Current Version | Previous Version | Text Only | Print | Product List | Glossary Off
Versions: 1 2 3 4 5 6 7 8 9 10 11 12 13 14 15 16 17 18 19 20 21 22 23 24 25 26 27 28 29 30 31 32 33 34 35 36 37 38 39 40 41 42 43 44 45 46 47 48 49 50

000
FPUS83 KFGF 270710
OPUFGF
PRAIRIE TO PINES WEATHER ROUNDUP
NATIONAL WEATHER SERVICE EASTERN NORTH DAKOTA/GRAND FORKS ND
200 AM CDT MON APR 27 2015

 **SATELLITE DATA USED TO AUGMENT SKY COVER AT AUTOMATED STATIONS**
 *****  WEATHER ACROSS EASTERN NORTH DAKOTA  *****

CITY           SKY/WX    TMP DP  RH WIND       PRES   REMARKS
GRAND FORKS    CLEAR     42  27  55 SW3       30.16S
GRAND FORKS AF CLEAR     37  29  74 W5        30.15F
GRAND CITY NWS   N/A     41 N/A N/A NW1         N/A
BUXTON         NOT AVBL
DEVILS LAKE    CLOUDY    37  34  87 W3        30.16S VSB<1/4
FARGO          CLEAR     42  26  53 S3        30.16S
WAHPETON ARPT  SUNNY     41  27  56 CALM      30.18R
$$

 *****  WEATHER ACROSS CENTRAL AND WESTERN NORTH DAKOTA  *****

CITY           SKY/WX    TMP DP  RH WIND       PRES   REMARKS
JAMESTOWN      MOCLDY    42  32  67 CALM      30.17R
BISMARCK       MOCLDY    45  43  93 N6        30.18S FOG
MINOT          LGT RAIN  45  40  82 NW10      30.19R
MINOT AFB      DRIZZLE   44  44 100 N15       30.19R
GARRISON         N/A     45  43  93 NW9       30.18R
WILLISTON      LGT RAIN  42  38  85 N9        30.24R
DICKINSON      LGT RAIN  43  41  93 NW5       30.18R
HETTINGER      LGT RAIN  43  41  93 N3        30.19S FOG
$$

 *****  OTHER OBSERVATIONS NORTHEAST NORTH DAKOTA  *****

CITY           SKY/WX    TMP DP  RH WIND       PRES   REMARKS
WALHALLA       FAIR      45  45 100 SW3       30.16S
LANGDON        PTSUNNY   39  36  87 CALM      30.17R
CAVALIER       FAIR      45  41  87 E5        30.16S FOG
GRAFTON        FAIR      46  45  93 W5        30.16F
CANDO          CLOUDY    39  39 100 W6        30.17S FOG
FORT TOTTEN      N/A     44  44 100 CALM      29.95
ROLLA          CLOUDY    45  45 100 NW6       30.18R
RUGBY          NOT AVBL
 ***** THE ABOVE OBSERVATIONS ARE NON NWS ARE NOT QUALITY
        CONTROLLED AND MAY MIS-REPORT RAIN FOR SNOW...
$$

 *****  OTHER OBSERVATIONS SOUTHEAST NORTH DAKOTA *****

CITY           SKY/WX    TMP DP  RH WIND       PRES   REMARKS
COOPERSTOWN    NOT AVBL
VALLEY CITY    FAIR      46  27  46 SW7       30.17R
OAKES            N/A     41  32  70 SW3       30.18R
GWINNER        SUNNY     43  28  56 SW7       30.18R
BUFFALO        NOT AVBL
WYNDMERE       NOT AVBL
 ***** THE ABOVE OBSERVATIONS ARE NON NWS ARE NOT QUALITY
       CONTROLLED AND MAY MIS-REPORT RAIN FOR SNOW...
$$

  *****  WEATHER ACROSS NORTHERN MINNESOTA  *****

CITY           SKY/WX    TMP DP  RH WIND       PRES   REMARKS
FLAG ISLAND    CLEAR     41  32  70 CALM      30.18S
WARROAD        PTCLDY    36  28  75 CALM      30.19S
ROSEAU         PTCLDY    37  28  70 CALM      30.18S
HALLOCK        PTCLDY    43  21  42 S3        30.15S
THF RVR FALLS  PTCLDY    46  21  36 SE5       30.18S
HALSTAD        NOT AVBL
FOSSTON        PTCLDY    37  25  60 CALM      30.18S
BAUDETTE       PTCLDY    34  26  72 CALM      30.18S
WASKISH        CLEAR     30  25  80 CALM      30.18F
CROOKSTON      CLEAR     46  25  42 SE6       30.17S
$$
  *****  WEATHER ACROSS CENTRAL AND WEST MINNESOTA  *****

CITY           SKY/WX    TMP DP  RH WIND       PRES   REMARKS
BEMIDJI        CLEAR     33  24  70 CALM      30.17S
PARK RAPIDS    CLEAR     34  27  75 N5        30.17S
WADENA         CLEAR     34  25  69 CALM      30.17S
DETROIT LAKES  CLEAR     43  32  65 CALM      30.19R
MOORHEAD       CLEAR     45  25  45 SE3       30.18R
FERGUS FALLS   CLEAR     50  16  25 SE5       30.19S
ELBOW LAKE     FAIR      46  28  48 SE5       30.18R
MORRIS MN      CLEAR     43  21  42 CALM      30.18R
STAPLES        CLEAR     34  25  69 CALM      30.18R
WHEATON        CLEAR     36  23  60 S3        30.20R
$$
  *****  WEATHER ELSEWHERE ACROSS MINNESOTA  *****

CITY           SKY/WX    TMP DP  RH WIND       PRES   REMARKS
DULUTH         CLEAR     32  22  66 CALM      30.18R
INTRNTL FALLS  CLEAR     27  22  81 CALM      30.19S
ELY            CLEAR     28  25  86 CALM      30.19R
CLOQUET        CLEAR     28  21  74 CALM      30.18S
BRAINERD       CLEAR     35  23  61 CALM      30.18R
HIBBING        CLEAR     26  19  74 NW3       30.18S
ALEXANDRIA     CLEAR     38  28  67 CALM      30.18S
SAINT CLOUD    CLEAR     35  23  61 E5        30.17S
MINNEAPOLIS    CLEAR     47  25  42 NE5       30.16F
$$

  *****  WEATHER ACROSS SOUTH DAKOTA  *****

CITY           SKY/WX    TMP DP  RH WIND       PRES   REMARKS
SIOUX FALLS    CLEAR     42  26  53 NE6       30.15F
BROOKINGS      CLEAR     37  28  70 CALM      30.19S
WATERTOWN      CLEAR     40  23  50 CALM      30.19R
HURON          PTCLDY    44  28  53 E6        30.16S
SISSETON         N/A     36  27  69 W5        30.18R
ABERDEEN       MOCLDY    39  28  64 CALM      30.18R
MITCHELL       CLEAR     42  34  73 E6        30.16S
PIERRE         MOCLDY    41  33  73 NE6       30.14S
MOBRIDGE       CLOUDY    48  35  60 NE7       30.14R
RAPID CITY     MOCLDY    43  41  93 NW5       30.16R
$$

  *****  SOME WEATHER IN NEARBY STATES *****

CITY           SKY/WX    TMP DP  RH WIND       PRES   REMARKS
GLASGOW MT     LGT RAIN  40  36  86 W6        30.25S
GREAT FALLS MT CLEAR     31  28  89 SW8       30.22S WCI  23
CHEYENNE WY    LGT SNOW  33  32  96 SE5       30.14R FOG
SCOTTSBLUFF NE CLOUDY    45 N/A N/A CALM      30.16R
OMAHA NE       PTCLDY    41  37  86 NW6       30.10F
DES MOINES IA  CLEAR     45  29  53 CALM      30.11F
DAVENPORT IA   CLEAR     37  31  78 NW5       30.07S
CHICAGO IL     CLEAR     41  30  65 N12       30.05S
EAU CLAIRE WI  CLEAR     40  23  50 N6        30.15R
LA CROSSE WI   CLEAR     47  31  53 N3        30.12S
$$

  *****  SOME NATIONAL WEATHER *****

CITY           SKY/WX    TMP DP  RH WIND       PRES   REMARKS
LA GUARDIA NY  MOCLDY    50  31  48 NW10      29.67F
RALEIGH NC     PTCLDY    42  40  92 CALM      29.77F
ATLANTA GA     PTCLDY    54  48  80 NW8       29.79S
NEW ORLEANS LA CLOUDY    75  71  87 SE7       29.70F
OKLAHOMA CITY  CLOUDY    54  50  86 NE13      29.83F
ALBUQUERQUE NM LGT RAIN  45  42  89 E14       29.91R
SALT LAKE CITY MOCLDY    47  36  65 NW8       30.14R
LOS ANGELES CA PTCLDY    60  52  74 E9        29.94R
BOISE ID       CLEAR     47  25  42 W3        30.22R
SEATTLE WA     CLOUDY    52  47  83 S6        30.26S
$$

*** WEATHER ACROSS MANITOBA...SASKATCHEWAN AND ONTARIO ***
                ***ONTARIO***

CITY           SKY/WX    TMP DP  RH WIND       PRES   REMARKS
GERALDTON      CLEAR     32  27  80 N5        30.18S
THUNDER BAY    CLEAR     30  27  86 W6        30.18S WCI  24
SIOUX LOOKOUT  CLEAR     27  23  86 VRB2      30.21F
TORONTO        MOCLDY    43  36  75 N13G20    29.80S
BIG TROUT LK   CLEAR     28  27  93 E3        30.29S
PICKLE LAKE    NOT AVBL
DRYDEN         CLEAR     37  32  81 E6        30.19F
KENORA         PTCLDY    45  18  33 SE7       30.19S
$$
                *** MANITOBA***

CITY           SKY/WX    TMP DP  RH WIND       PRES   REMARKS
BRANDON        CLOUDY    43  36  75 NW8       30.19S
DAUPHIN        CLOUDY    43  36  75 W15       30.17S
ISLAND LAKE    CLOUDY    43  27  52 SE9       30.15F
PILOT MOUND      N/A     48  43  81 W5          N/A
THE PAS        CLOUDY    36  36 100 W12       30.09S FOG
THOMPSON       CLOUDY    45  28  53 E6        30.05F
WINNIPEG       MOCLDY    55  46  71 S3        30.16S
CHURCHILL      MOCLDY    23  21  93 NE10      30.37F WCI  12
GILLAM         CLOUDY    36  28  75 E9        30.21F
$$
                ***SASKATCHEWAN***

CITY           SKY/WX    TMP DP  RH WIND       PRES   REMARKS
ESTEVAN        CLOUDY    41  34  75 NW10      30.23R
KINDERSLEY     CLEAR     30  25  80 S6        30.18S WCI  24
LLOYDMINSTER   CLEAR     34  21  60 SW5       30.14S
PRINCE ALBERT  PTCLDY    30  28  93 W5        30.20R
REGINA         CLOUDY    37  34  87 W3        30.22R
YORKTON        CLOUDY    37  32  81 NW13      30.18F
N. BATTLEFORD  NOT AVBL


USA.gov is the U.S. government's official web portal to all federal, state and local government web resources and services.